MST,Max TemperatureF,Mean TemperatureF,Min TemperatureF,Max Dew PointF,MeanDew PointF,Min DewpointF,Max Humidity, Mean Humidity, Min Humidity, Max Sea Level PressureIn, Mean Sea Level PressureIn, Min Sea Level PressureIn, Max VisibilityMiles, Mean VisibilityMiles, Min VisibilityMiles, Max Wind SpeedMPH, Mean Wind SpeedMPH, Max Gust SpeedMPH,PrecipitationIn, CloudCover, Events, WindDirDegrees
2012-12-1,53,37,20,33,25,18,96,69,41,29.71,29.64,29.55,10,10,8,39,14,47,0.00,1,,209
2012-12-2,46,37,28,34,27,21,85,74,62,29.60,29.39,29.17,10,10,10,40,14,48,0.00,1,,242
2012-12-3,43,37,31,27,26,23,75,62,49,30.04,29.86,29.63,10,10,10,47,25,56,0.00,0,,255
2012-12-4,50,40,30,32,28,23,72,59,46,30.04,29.84,29.65,10,10,10,26,11,33,0.00,2,,196
2012-12-5,48,36,24,35,23,14,73,52,30,30.04,29.75,29.52,10,10,10,53,25,63,0.00,0,,256
2012-12-6,35,30,24,18,16,14,68,58,47,30.04,29.97,29.84,10,10,10,24,14,26,0.00,2,,252
2012-12-7,37,28,19,25,19,13,96,69,41,29.91,29.78,29.59,10,9,2,28,9,32,T,5,Snow,251
2012-12-8,26,13,-1,25,7,-3,100,87,73,30.42,29.98,29.57,,,,29,14,32,0.05,8,Snow,336
2012-12-9,27,10,-8,15,4,-11,95,77,59,30.45,30.19,29.78,,,,43,18,52,0.00,1,,246
2012-12-10,35,26,17,20,17,11,75,61,47,29.99,29.93,29.83,10,10,10,32,21,38,0.00,1,,265
2012-12-11,40,35,29,25,24,22,69,60,50,29.79,29.54,29.45,10,10,10,40,20,49,0.00,3,,254
2012-12-12,32,22,12,24,17,10,96,82,68,29.92,29.73,29.52,10,10,6,16,7,18,0.00,6,,356
2012-12-13,36,22,7,20,11,3,92,70,47,29.92,29.78,29.69,10,6,0,39,18,46,0.00,1,Fog,242
2012-12-14,37,27,17,16,12,10,68,50,32,29.80,29.70,29.59,10,10,10,25,15,32,0.00,2,,267
2012-12-15,34,22,10,15,11,7,84,63,41,29.87,29.75,29.58,10,10,10,30,10,37,0.00,0,,223
2012-12-16,34,26,17,19,14,10,74,61,47,29.65,29.58,29.43,10,10,10,37,14,44,0.00,1,,222
2012-12-17,40,28,16,27,19,14,84,66,48,29.46,29.34,29.16,10,10,10,35,16,43,0.00,2,,190
2012-12-18,29,20,10,18,10,4,73,56,39,29.90,29.71,29.45,10,10,10,32,21,41,0.00,2,,267
2012-12-19,31,19,6,15,8,4,84,62,39,30.00,29.95,29.89,10,10,10,38,15,44,0.00,0,,250
2012-12-20,46,32,17,22,18,12,68,53,37,29.91,29.85,29.74,10,10,10,26,10,32,0.00,0,,221
2012-12-21,36,20,4,28,10,0,91,72,52,30.17,29.99,29.83,10,6,1,23,12,26,T,4,Snow,355
2012-12-22,4,3,1,2,-1,-4,95,91,86,30.25,30.08,29.86,10,6,1,18,5,21,T,8,Snow,34
2012-12-23,4,-2,-8,-1,-5,-11,100,90,79,30.23,30.06,29.86,10,8,1,13,5,14,T,5,Snow,3
2012-12-24,-2,-9,-17,-8,-10,-19,89,80,71,30.58,30.24,29.95,10,5,1,15,9,17,T,7,Snow,350
2012-12-25,1,-10,-22,-5,-11,-25,90,83,75,30.56,30.35,29.92,10,10,9,12,5,13,0.00,5,,122
2012-12-26,2,-5,-12,-5,-9,-14,92,84,75,30.14,29.99,29.77,10,8,1,7,1,7,0.00,2,,140
2012-12-27,13,-2,-17,8,-5,-20,87,80,73,30.11,30.06,29.79,10,10,10,7,2,8,0.00,2,,1
2012-12-28,29,17,5,19,13,5,84,74,63,30.09,30.06,30.03,10,10,10,25,15,31,0.00,0,,265
2012-12-29,31,27,22,23,20,15,88,76,63,30.09,29.99,29.87,10,8,1,30,19,36,T,6,Snow,274
2012-12-30,26,21,16,20,14,10,88,75,62,30.14,30.10,30.06,10,10,10,24,14,30,T,3,,272
2012-12-31,30,22,14,20,15,9,77,70,63,30.16,30.08,29.97,10,10,10,26,15,32,0.00,4,,277